Flag for Greece Weather past 2 weeks in Athens, Greece

Now
84 °F

Scattered clouds.


Feels Like: 87 °F
Forecast: 72 / 85 °F
Wind: 20 mph from South

Location: Elefsis Airport

Current Time: Sep 2, 2014 at 5:21:06 PM

Latest Report: Sep 2, 2014 at 4:50 PM


Visibility: N/A

Pressure: 29.62 "Hg

Humidity: 55%

Dew point: 66 °F

Location of AthensLocation

Historic Weather in Athens — Graph

°F

Athens temperature yesterday

Maximum temperature yesterday: 90 °F (at 2:20 PM)
Minimum temperature yesterday: 68 °F (at 5:50 AM)
Average temperature yesterday: 78 °F

Past Weeks' High & Low Weather Summary

 TemperatureHumidityPressure
High104 °F (Aug 24, 2:50 PM)78% (Sep 2, 7:20 AM)30.01 "Hg (Sep 2, 7:20 AM)
Low68 °F (Aug 21, 6:20 AM)8% (Aug 24, 3:20 PM)29.65 "Hg (Sep 2, 2:20 PM)
Average83 °F43%29.88 "Hg
* Reported Aug 18 3:20 PM — Sep 2 3:50 PM, Athens, Weather by CustomWeather, © 2014

Note: Actual official high and low records may vary slightly from our data, if they occured in-between our weather recording intervals... More about our weather records

Advertising

Athens weather history for previous 24 hours

 ConditionsComfort  
Time TempWeatherWind HumidityBarometerVisibility
3:50 PM
Sep 2
84 °FScattered clouds.15 mph48%29.65 "HgN/A
3:20 PM84 °FScattered clouds.15 mph45%29.65 "HgN/A
2:50 PM86 °FScattered clouds.12 mph46%29.65 "HgN/A
2:20 PM84 °FScattered clouds.10 mph55%29.65 "HgN/A
1:50 PM84 °FBroken clouds.10 mph58%29.68 "HgN/A
1:20 PM82 °FBroken clouds.10 mph62%29.68 "HgN/A
12:50 PM82 °FBroken clouds.12 mph66%29.68 "HgN/A
12:20 PM82 °FBroken clouds.9 mph58%29.68 "HgN/A
11:50 AM82 °FScattered clouds.8 mph58%29.68 "HgN/A
11:20 AM84 °FScattered clouds.8 mph58%29.68 "HgN/A
10:50 AM82 °FScattered clouds.6 mph58%29.68 "HgN/A
10:20 AM82 °FScattered clouds.5 mph58%29.68 "HgN/A
9:20 AM81 °FScattered clouds.No wind62%29.68 "HgN/A
8:50 AM79 °FScattered clouds.No wind61%29.68 "HgN/A
8:20 AM75 °FScattered clouds.No wind69%29.68 "HgN/A
7:20 AM70 °FPassing clouds.5 mph78%29.68 "HgN/A
6:50 AM70 °FPassing clouds.5 mph73%29.68 "HgN/A
6:20 AM70 °FClear.5 mph73%29.68 "Hg10 mi
5:50 AM70 °FClear.7 mph73%29.68 "Hg10 mi
5:20 AM70 °FClear.7 mph73%29.68 "Hg10 mi
4:50 AM70 °FClear.7 mph73%29.71 "Hg10 mi
3:20 AM72 °FClear.No wind69%29.71 "Hg10 mi
2:50 AM72 °FClear.No wind69%29.71 "Hg10 mi
2:20 AM73 °FClear.6 mph65%29.74 "Hg10 mi
1:50 AM72 °FClear.No wind69%29.74 "Hg10 mi
1:20 AM73 °FClear.No wind65%29.74 "Hg10 mi
12:50 AM73 °FClear.5 mph65%29.74 "Hg10 mi
12:20 AM73 °FClear.No wind65%29.74 "Hg10 mi
11:20 PM
Sep 1
77 °FClear.No wind57%29.77 "Hg10 mi
10:50 PM77 °FClear.No wind57%29.77 "Hg10 mi
10:20 PM77 °FClear.No wind57%29.77 "Hg10 mi
9:50 PM77 °FClear.No wind57%29.77 "Hg10 mi
9:20 PM79 °FClear.No wind54%29.74 "Hg10 mi
8:50 PM79 °FSunny.No wind54%29.74 "Hg10 mi
8:20 PM79 °FSunny.8 mph54%29.74 "Hg10 mi
7:50 PM81 °FSunny.8 mph58%29.74 "Hg10 mi
6:50 PM82 °FPassing clouds.14 mph51%29.74 "HgN/A
6:20 PM82 °FPassing clouds.13 mph51%29.74 "HgN/A
5:50 PM84 °FPassing clouds.15 mph48%29.74 "HgN/A
5:20 PM84 °FPassing clouds.15 mph51%29.74 "HgN/A
Weather by CustomWeather, © 2014

See weather overviewHow to use our weather pages